Date String (YYYY-MM-DD hh:mm:ss) UTC,Instrument flags,Ambient pressure (hPa),Sample flow (lpm),Bypass flow (lpm),Sample temperature (°C),Ambient temperature (°C),ASC tube jacket temperature (°C),LED temperature (°C),Box temperature (°C),Sample RH (%),Span deviation,Mass concentration (μg/m³),Mass concentration (μg/m³),Mass concentration (μg/m³)
DateTimeUTC,F1_M11,P_M11,Q1_M11,Q2_M11,T1_M11,T2_M11,T3_M11,T4_M11,T5_M11,U1_M11,ZSPAN_M11,X0_M11,X2_M11,X1_M11
2022-04-28 20:00:00,,0818.9,5.00,0.00,29.3,26.0,00.0,38.3,30.8,12.0,0002.1,0037.59,0010.95,0006.21
2022-04-28 20:01:00,,0819.0,4.99,0.00,29.3,26.5,00.0,38.3,30.9,12.0,0002.5,0037.78,0011.03,0006.22
2022-04-28 20:02:00,,0818.9,5.02,0.00,29.3,26.9,00.0,38.3,31.0,11.9,0002.6,0038.15,0011.12,0006.23
2022-04-28 20:03:00,,0818.9,4.99,0.00,29.3,27.2,00.0,38.3,31.1,11.8,0002.4,0038.63,0011.18,0006.25
2022-04-28 20:04:00,,0818.9,4.99,0.00,29.3,27.5,00.0,38.3,31.1,11.8,0002.3,0039.34,0011.12,0006.28
2022-04-28 20:05:00,,0818.9,5.02,0.00,29.3,27.7,00.0,38.3,31.2,11.8,0002.0,0039.64,0011.18,0006.34
2022-04-28 20:06:00,,0818.9,4.99,0.00,29.4,27.9,00.0,38.3,31.2,11.8,0001.0,0038.76,0011.05,0006.36
2022-04-28 20:07:00,,0818.8,5.01,0.00,29.4,28.1,00.0,38.3,31.2,11.6,0001.0,0037.82,0010.93,0006.39
2022-04-28 20:08:00,,0818.8,5.01,0.00,29.4,28.3,00.0,38.3,31.3,11.8,0001.3,0035.77,0010.83,0006.41
2022-04-28 20:09:00,,0818.8,4.99,0.00,29.5,28.4,00.0,38.3,31.3,11.7,0001.6,0033.53,0010.72,0006.39
2022-04-28 20:10:00,,0818.8,4.99,0.00,29.5,28.5,00.0,38.3,31.4,11.6,0001.5,0033.04,0010.66,0006.42
2022-04-28 20:11:00,,0818.8,5.01,0.00,29.5,28.6,00.0,38.4,31.4,11.4,0001.4,0033.71,0010.73,0006.46
2022-04-28 20:12:00,,0818.8,4.99,0.00,29.6,28.7,00.0,38.4,31.5,11.3,0001.6,0034.73,0010.71,0006.51
2022-04-28 20:13:00,,0818.8,4.99,0.00,29.6,28.8,00.0,38.4,31.5,11.4,0001.9,0034.42,0010.57,0006.54
2022-04-28 20:14:00,,0818.8,5.02,0.00,29.7,28.8,00.0,38.4,31.5,11.4,0001.9,0034.23,0010.56,0006.55
2022-04-28 20:15:00,,0818.8,4.99,0.00,29.7,28.9,00.0,38.4,31.6,11.4,0002.4,0033.28,0010.65,0006.55
2022-04-28 20:16:00,,0818.8,5.00,0.00,29.7,28.2,00.0,38.5,31.4,11.4,0003.2,0033.12,0010.60,0006.52
2022-04-28 20:17:00,,0818.8,4.99,0.00,29.6,25.9,00.0,38.4,30.9,11.5,0003.7,0032.56,0010.57,0006.49
2022-04-28 20:18:00,,0818.8,5.01,0.00,29.4,25.3,00.0,38.4,30.7,11.7,0003.9,0033.27,0010.55,0006.47
2022-04-28 20:19:00,,0818.7,4.99,0.00,29.4,25.7,00.0,38.4,30.8,11.7,0003.7,0034.13,0010.61,0006.46
2022-04-28 20:20:00,,0818.7,5.01,0.00,29.3,26.2,00.0,38.3,30.9,11.8,0003.4,0034.56,0010.63,0006.48
2022-04-28 20:21:00,,0818.7,4.99,0.00,29.3,26.7,00.0,38.3,31.0,11.8,0003.5,0034.35,0010.68,0006.51
2022-04-28 20:22:00,,0818.8,5.01,0.00,29.3,27.1,00.0,38.3,31.1,11.7,0004.0,0034.13,0010.61,0006.52
2022-04-28 20:23:00,,0818.8,5.02,0.00,29.3,27.4,00.0,38.3,31.1,12.0,0003.8,0032.77,0010.63,0006.52
2022-04-28 20:24:00,,0818.7,4.99,0.00,29.4,27.7,00.0,38.3,31.2,11.6,0003.0,0033.47,0010.75,0006.53
2022-04-28 20:25:00,,0818.6,5.01,0.00,29.4,27.9,00.0,38.3,31.2,11.6,0003.4,0033.92,0010.83,0006.54
2022-04-28 20:26:00,,0818.5,5.01,0.00,29.4,28.0,00.0,38.3,31.3,11.4,0003.0,0034.44,0010.82,0006.55
2022-04-28 20:27:00,,0818.5,4.99,0.00,29.5,28.2,00.0,38.3,31.3,11.4,0002.6,0034.94,0010.87,0006.57
2022-04-28 20:28:00,,0818.5,5.02,0.00,29.5,28.4,00.0,38.3,31.4,11.3,0002.3,0034.90,0010.88,0006.59
2022-04-28 20:29:00,,0818.5,4.99,0.00,29.5,28.5,00.0,38.4,31.4,11.2,0001.8,0035.00,0010.90,0006.60
2022-04-28 20:30:00,,0818.5,4.99,0.00,29.6,28.6,00.0,38.4,31.4,11.2,0002.0,0034.82,0010.88,0006.59
2022-04-28 20:31:00,,0818.4,5.02,0.00,29.6,28.7,00.0,38.4,31.5,11.1,0002.4,0034.92,0010.82,0006.59
2022-04-28 20:32:00,,0818.4,4.99,0.00,29.7,28.8,00.0,38.4,31.6,10.9,0002.4,0036.00,0010.77,0006.60
2022-04-28 20:33:00,,0818.4,5.00,0.00,29.7,28.2,00.0,38.5,31.4,11.0,0002.0,0036.15,0010.85,0006.62
2022-04-28 20:34:00,,0818.4,5.01,0.00,29.6,26.0,00.0,38.4,30.9,11.4,0001.8,0035.96,0010.92,0006.64
2022-04-28 20:35:00,,0818.4,5.00,0.00,29.4,25.2,00.0,38.4,30.7,11.1,0002.7,0035.88,0010.94,0006.67
2022-04-28 20:36:00,,0818.4,4.99,0.00,29.4,25.7,00.0,38.3,30.8,10.9,0003.0,0036.01,0011.00,0006.72
2022-04-28 20:37:00,,0818.3,5.00,0.00,29.3,26.2,00.0,38.3,30.8,10.9,0002.9,0036.53,0011.08,0006.78
2022-04-28 20:38:00,,0818.3,5.01,0.00,29.3,26.6,00.0,38.3,31.0,11.1,0003.1,0035.96,0011.11,0006.81
2022-04-28 20:39:00,,0818.3,5.00,0.00,29.3,27.0,00.0,38.3,31.0,11.3,0003.3,0037.05,0011.14,0006.84
2022-04-28 20:40:00,,0818.2,4.99,0.00,29.3,27.3,00.0,38.3,31.1,11.3,0003.8,0036.21,0011.13,0006.84
2022-04-28 20:41:00,,0818.1,5.01,0.00,29.4,27.6,00.0,38.3,31.2,11.2,0004.1,0037.70,0011.26,0006.87
2022-04-28 20:42:00,,0818.1,5.00,0.00,29.4,27.8,00.0,38.3,31.2,11.3,0003.7,0038.73,0011.33,0006.87
2022-04-28 20:43:00,,0818.0,5.01,0.00,29.4,28.0,00.0,38.3,31.3,11.2,0003.3,0038.20,0011.46,0006.86
2022-04-28 20:44:00,,0818.0,4.99,0.00,29.4,28.2,00.0,38.3,31.3,11.3,0004.1,0038.74,0011.57,0006.85
2022-04-28 20:45:00,,0818.0,5.00,0.00,29.5,28.3,00.0,38.3,31.3,11.0,0004.3,0038.69,0011.56,0006.84
2022-04-28 20:46:00,,0818.0,5.00,0.00,29.5,28.4,00.0,38.3,31.4,11.1,0003.7,0038.12,0011.52,0006.80
2022-04-28 20:47:00,,0818.0,4.99,0.00,29.6,28.6,00.0,38.4,31.4,11.1,0003.5,0036.90,0011.35,0006.76
2022-04-28 20:48:00,,0818.0,5.02,0.00,29.6,28.7,00.0,38.4,31.5,11.0,0003.7,0037.14,0011.26,0006.73
2022-04-28 20:49:00,,0818.0,4.99,0.00,29.6,28.8,00.0,38.4,31.5,10.9,0003.5,0036.94,0011.20,0006.69
2022-04-28 20:50:00,,0818.0,4.98,0.00,29.7,28.8,00.0,38.4,31.5,10.9,0003.1,0036.07,0011.19,0006.68
2022-04-28 20:51:00,,0818.0,5.00,0.00,29.6,27.5,00.0,38.4,31.3,11.0,0002.7,0036.11,0011.24,0006.68
2022-04-28 20:52:00,,0818.0,5.00,0.00,29.5,26.3,00.0,38.4,31.0,11.0,0002.8,0034.12,0011.16,0006.66
2022-04-28 20:53:00,,0818.0,5.00,0.00,29.5,26.5,00.0,38.4,31.0,11.4,0002.6,0033.58,0011.14,0006.67
2022-04-28 20:54:00,,0818.0,5.00,0.00,29.4,26.9,00.0,38.4,31.1,11.2,0002.5,0035.40,0011.10,0006.65
2022-04-28 20:55:00,,0818.0,5.00,0.00,29.4,27.3,00.0,38.4,31.2,11.2,0002.2,0034.07,0010.98,0006.63
2022-04-28 20:56:00,,0817.9,4.99,0.00,29.5,27.6,00.0,38.4,31.2,11.3,0002.2,0035.07,0010.91,0006.62
2022-04-28 20:57:00,,0817.9,5.02,0.00,29.5,27.8,00.0,38.4,31.3,11.0,0002.2,0035.79,0010.91,0006.61
2022-04-28 20:58:00,,0817.9,5.00,0.00,29.5,28.0,00.0,38.4,31.4,10.9,0002.1,0036.62,0010.95,0006.61
2022-04-28 20:59:00,,0817.9,4.99,0.00,29.6,28.2,00.0,38.4,31.4,10.8,0001.6,0038.29,0010.90,0006.59
